K5TWC Weather Reports


time (UTC)temp
F
wind
direction
speed
knots
gust
knots
rain 1hr
in
rain 24hr
in
rain mn
in
humidity
%
barometer
mb
20260506051005 64 309 4.3 8.7 0.00 0.00 0.00 79 1009.8
20260506050503 64 339 4.3 8.7 0.00 0.00 0.00 79 1009.8
20260506045003 65 360 1.7 10.4 0.00 0.00 0.00 79 1009.7
20260506044515 65 320 2.6 8.7 0.00 0.00 0.00 79 1009.7
20260506044003 65 360 2.6 8.7 0.00 0.00 0.00 79 1009.8
20260506043504 65 352 2.6 10.4 0.00 0.00 0.00 79 1009.7
20260506043020 66 282 4.3 10.4 0.00 0.00 0.00 78 1009.7
20260506042510 66 13 3.5 8.7 0.00 0.00 0.00 78 1009.7
20260506042011 66 355 3.5 10.4 0.00 0.00 0.00 78 1009.5
20260506041522 67 322 4.3 10.4 0.00 0.00 0.00 78 1009.3
20260506041006 67 313 2.6 9.6 0.00 0.00 0.00 78 1009.3
20260506040503 68 333 2.6 8.7 0.00 0.00 0.00 78 1009.3
20260506040023 68 360 4.3 8.7 0.00 0.00 0.00 77 1009.4
20260506035504 68 302 3.5 7.8 0.00 0.00 0.00 77 1009.2
20260506035004 69 338 2.6 8.7 0.00 0.00 0.00 77 1009.1
20260506034512 69 28 5.2 8.7 0.00 0.00 0.00 77 1009.1
20260506034005 69 306 2.6 7.0 0.00 0.00 0.00 77 1009.0
20260506033503 69 5 0.9 8.7 0.00 0.00 0.00 77 1008.9
20260506033016 70 360 1.7 8.7 0.00 0.00 0.00 77 1008.9
20260506032503 70 333 2.6 8.7 0.00 0.00 0.00 77 1008.6
20260506032009 70 355 0.9 8.7 0.00 0.00 0.00 76 1008.5
20260506031537 70 328 2.6 9.6 0.00 0.00 0.00 76 1008.6
20260506031008 70 345 3.5 9.6 0.00 0.00 0.00 76 1008.8
20260506030506 70 329 5.2 9.6 0.00 0.00 0.00 76 1008.6
20260506030024 71 301 5.2 9.6 0.00 0.00 0.00 75 1008.5
20260506025504 71 331 1.7 10.4 0.00 0.00 0.00 76 1008.3
20260506025003 72 360 4.3 10.4 0.00 0.00 0.00 75 1008.1
20260506024516 72 340 2.6 8.7 0.00 0.00 0.00 75 1008.0
20260506024006 73 326 3.5 11.3 0.00 0.00 0.00 75 1007.7
20260506023506 73 360 5.2 11.3 0.00 0.00 0.00 75 1007.5
20260506023012 74 331 3.5 8.7 0.00 0.00 0.00 74 1007.4
20260506022506 74 360 1.7 7.0 0.00 0.00 0.00 74 1007.1
20260506022006 74 360 2.6 4.3 0.00 0.00 0.00 73 1007.0
20260506021517 74 305 1.7 4.3 0.00 0.00 0.00 73 1006.8
20260506021007 74 337 0.0 7.0 0.00 0.00 0.00 73 1006.7
20260506020511 74 9 1.7 7.0 0.00 0.00 0.00 72 1006.8
20260506020021 75 323 0.0 8.7 0.00 0.00 0.00 72 1006.8
20260506015505 75 333 1.7 8.7 0.00 0.00 0.00 72 1006.8
20260506015007 75 305 2.6 7.0 0.00 0.00 0.00 72 1006.9
20260506014511 75 325 1.7 7.8 0.00 0.00 0.00 72 1006.6
20260506014002 75 317 1.7 7.8 0.00 0.00 0.00 72 1006.4
20260506013507 75 326 2.6 7.0 0.00 0.00 0.00 71 1006.4
20260506013009 75 331 1.7 7.0 0.00 0.00 0.00 71 1006.4
20260506012504 75 360 1.7 7.0 0.00 0.00 0.00 70 1006.8
20260506012004 76 300 1.7 9.6 0.00 0.00 0.00 70 1006.5
20260506011517 76 360 3.5 9.6 0.00 0.00 0.00 70 1006.1
20260506011003 76 360 3.5 9.6 0.00 0.00 0.00 70 1005.9
20260506010506 77 26 3.5 9.6 0.00 0.00 0.00 70 1006.0
20260506010018 78 36 4.3 9.6 0.00 0.00 0.00 69 1005.8
20260506005506 79 320 2.6 7.8 0.00 0.00 0.00 68 1005.9
20260506005009 79 9 2.6 6.1 0.00 0.00 0.00 67 1006.0
20260506004527 80 336 0.0 3.5 0.00 0.00 0.00 67 1005.9
20260506004013 80 338 0.9 5.2 0.00 0.00 0.00 66 1005.8
20260506003510 81 334 0.9 5.2 0.00 0.00 0.00 65 1005.6
20260506003012 82 355 0.0 5.2 0.00 0.00 0.00 65 1005.6
20260506002504 82 324 0.0 7.0 0.00 0.00 0.00 65 1005.8
20260506002004 82 271 0.0 7.0 0.00 0.00 0.00 66 1005.7
20260506001514 83 360 0.9 5.2 0.00 0.00 0.00 73 1005.5
20260506001004 83 231 0.0 5.2 0.00 0.00 0.00 73 1005.2
20260506000504 83 207 0.9 7.8 0.00 0.00 0.00 73 1005.3
20260506000021 83 168 0.0 7.8 0.00 0.00 0.00 73 1005.1
20260505235503 84 262 0.9 7.8 0.00 0.00 0.00 72 1004.6
20260505235007 84 188 0.9 8.7 0.00 0.00 0.00 72 1004.6
20260505234530 84 167 2.6 8.7 0.00 0.00 0.00 72 1004.3
20260505234007 85 155 1.7 8.7 0.00 0.00 0.00 71 1004.3
20260505233508 85 200 2.6 8.7 0.00 0.00 0.00 71 1004.5
20260505233026 85 165 3.5 8.7 0.00 0.00 0.00 70 1004.5
20260505232512 85 360 2.6 9.6 0.00 0.00 0.00 70 1004.4
20260505232010 86 360 3.5 9.6 0.00 0.00 0.00 69 1004.3
20260505231510 86 360 2.6 7.8 0.00 0.00 0.00 69 1004.4
20260505231003 86 170 1.7 8.7 0.00 0.00 0.00 69 1004.2
20260505230503 87 205 1.7 9.6 0.00 0.00 0.00 68 1004.3
20260505230022 87 198 0.9 9.6 0.00 0.00 0.00 68 1004.2
20260505225507 87 186 0.9 5.2 0.00 0.00 0.00 69 1004.2
20260505225004 86 169 1.7 6.1 0.00 0.00 0.00 68 1004.2
20260505224520 87 138 0.9 7.8 0.00 0.00 0.00 68 1004.2
20260505224004 87 198 2.6 9.6 0.00 0.00 0.00 68 1004.2
20260505223507 87 198 3.5 9.6 0.00 0.00 0.00 67 1004.0
20260505223024 88 360 3.5 11.3 0.00 0.00 0.00 66 1003.8
20260505222508 89 139 0.9 11.3 0.00 0.00 0.00 65 1003.8
20260505222008 90 156 1.7 7.8 0.00 0.00 0.00 64 1003.9
20260505221525 90 223 0.0 7.0 0.00 0.00 0.00 62 1003.9
20260505221011 90 233 0.0 7.0 0.00 0.00 0.00 62 1003.9
20260505220512 90 263 0.9 7.0 0.00 0.00 0.00 62 1003.9
20260505220011 90 134 1.7 7.0 0.00 0.00 0.00 62 1004.0
20260505215504 90 250 0.9 7.0 0.00 0.00 0.00 62 1003.9
20260505215004 91 123 1.7 7.0 0.00 0.00 0.00 61 1003.9
20260505214518 91 150 1.7 8.7 0.00 0.00 0.00 61 1004.0
20260505214007 91 360 0.0 8.7 0.00 0.00 0.00 60 1004.2
20260505213504 91 199 1.7 7.0 0.00 0.00 0.00 59 1004.2
20260505213021 92 88 0.9 5.2 0.00 0.00 0.00 58 1004.2
20260505212508 92 196 0.9 5.2 0.00 0.00 0.00 59 1004.3
20260505212010 92 331 0.0 11.3 0.00 0.00 0.00 59 1004.3
20260505211523 92 190 1.7 11.3 0.00 0.00 0.00 58 1004.3
20260505211010 92 155 1.7 7.8 0.00 0.00 0.00 59 1004.2
20260505210508 91 178 0.9 8.7 0.00 0.00 0.00 59 1004.3
20260505210029 91 223 2.6 11.3 0.00 0.00 0.00 59 1004.4
20260505205512 90 215 5.2 11.3 0.00 0.00 0.00 59 1004.4
20260505205011 90 258 0.0 7.0 0.00 0.00 0.00 60 1004.6
20260505204513 90 352 0.9 8.7 0.00 0.00 0.00 60 1004.8
20260505204004 89 188 0.9 8.7 0.00 0.00 0.00 61 1004.9
20260505203508 89 234 0.9 7.8 0.00 0.00 0.00 62 1004.9
20260505203017 89 12 0.9 11.3 0.00 0.00 0.00 61 1004.8
20260505202507 89 256 0.9 11.3 0.00 0.00 0.00 62 1005.0
20260505202008 89 94 0.9 7.8 0.00 0.00 0.00 62 1005.0
20260505201522 89 360 0.0 10.4 0.00 0.00 0.00 62 1005.0
20260505201010 89 102 0.9 10.4 0.00 0.00 0.00 62 1005.1
20260505200516 89 360 0.0 10.4 0.00 0.00 0.00 62 1005.1
20260505200036 89 319 0.9 5.2 0.00 0.00 0.00 62 1005.1
20260505195504 89 93 0.9 7.8 0.00 0.00 0.00 63 1005.0
20260505195002 89 114 0.9 7.8 0.00 0.00 0.00 64 1005.1
20260505194509 88 224 0.9 7.8 0.00 0.00 0.00 64 1005.1
20260505194006 88 232 2.6 12.2 0.00 0.00 0.00 64 1005.2
20260505193504 88 232 3.5 12.2 0.00 0.00 0.00 64 1005.2
20260505193028 88 194 0.9 8.7 0.00 0.00 0.00 65 1005.2
20260505192514 87 241 0.9 7.8 0.00 0.00 0.00 66 1005.2
20260505192006 87 182 0.9 7.8 0.00 0.00 0.00 66 1005.2
20260505191522 86 360 0.0 5.2 0.00 0.00 0.00 67 1005.2
20260505191012 86 240 0.9 4.3 0.00 0.00 0.00 67 1005.3
20260505190506 85 190 0.9 7.0 0.00 0.00 0.00 67 1005.3
20260505190033 85 200 0.9 7.8 0.00 0.00 0.00 67 1005.4
20260505185507 85 109 1.7 8.7 0.00 0.00 0.00 67 1005.5
20260505185008 85 11 2.6 8.7 0.00 0.00 0.00 66 1005.5
20260505184507 85 256 0.9 9.6 0.00 0.00 0.00 67 1005.5
20260505184005 85 360 1.7 9.6 0.00 0.00 0.00 66 1005.5
20260505183504 85 257 0.9 10.4 0.00 0.00 0.00 66 1005.5
20260505183014 85 175 1.7 10.4 0.00 0.00 0.00 67 1005.4
20260505182503 85 226 1.7 7.0 0.00 0.00 0.00 66 1005.5
20260505182007 86 360 1.7 7.0 0.00 0.00 0.00 65 1005.5
20260505181518 86 207 0.9 7.0 0.00 0.00 0.00 66 1005.6
20260505181004 85 185 0.0 12.2 0.00 0.00 0.00 66 1005.5
20260505180505 85 227 2.6 12.2 0.00 0.00 0.00 65 1005.5
20260505180020 85 187 1.7 12.2 0.00 0.00 0.00 66 1005.4
20260505175507 85 360 2.6 6.1 0.00 0.00 0.00 66 1005.4
20260505175006 85 239 0.9 7.0 0.00 0.00 0.00 66 1005.5
20260505174535 85 77 1.7 10.4 0.00 0.00 0.00 67 1005.6
20260505174009 85 360 1.7 10.4 0.00 0.00 0.00 67 1005.6
20260505173508 85 360 1.7 14.8 0.00 0.00 0.00 68 1005.5
20260505173010 84 181 2.6 14.8 0.00 0.00 0.00 67 1005.6
20260505172504 84 286 2.6 8.7 0.00 0.00 0.00 68 1005.5
20260505172012 84 208 2.6 9.6 0.00 0.00 0.00 68 1005.6
20260505171518 84 261 2.6 10.4 0.00 0.00 0.00 68 1005.7
20260505171004 84 360 1.7 10.4 0.00 0.00 0.00 68 1005.7
20260505170505 83 119 0.9 9.6 0.00 0.00 0.00 70 1005.8
20260505170020 83 182 2.6 9.6 0.00 0.00 0.00 70 1005.7
20260505165504 82 257 1.7 8.7 0.00 0.00 0.00 71 1005.6
20260505165011 82 155 1.7 8.7 0.00 0.00 0.00 70 1005.6
20260505164522 82 217 1.7 7.8 0.00 0.00 0.00 70 1005.6
20260505164007 82 263 1.7 10.4 0.00 0.00 0.00 70 1005.7
20260505163509 82 207 3.5 10.4 0.00 0.00 0.00 71 1005.6
20260505163025 82 249 1.7 10.4 0.00 0.00 0.00 71 1005.6
20260505162507 82 168 2.6 10.4 0.00 0.00 0.00 71 1005.5
20260505162010 81 194 2.6 9.6 0.00 0.00 0.00 72 1005.4
20260505161510 81 178 0.9 8.7 0.00 0.00 0.00 73 1005.4
20260505161005 81 211 1.7 8.7 0.00 0.00 0.00 73 1005.3
20260505160507 80 166 0.0 7.0 0.00 0.00 0.00 74 1005.3
20260505153024 78 236 3.5 11.3 0.00 0.00 0.00 77 1005.6
20260505152511 77 211 2.6 11.3 0.00 0.00 0.00 78 1005.6
20260505152017 77 276 1.7 8.7 0.00 0.00 0.00 78 1005.6
20260505151526 77 153 1.7 8.7 0.00 0.00 0.00 79 1005.7
20260505151012 76 259 2.6 8.7 0.00 0.00 0.00 79 1005.6
20260505150511 76 360 2.6 8.7 0.00 0.00 0.00 79 1005.6
20260505140507 73 209 1.7 10.4 0.00 0.00 0.00 83 1005.6
20260505125008 72 341 2.6 8.7 0.00 0.00 0.00 85 1005.3
20260505124525 72 225 2.6 7.8 0.00 0.00 0.00 85 1005.3
20260505124011 71 202 0.9 7.8 0.00 0.00 0.00 85 1005.0
20260505123507 71 151 1.7 12.2 0.00 0.00 0.00 86 1004.9
20260505123017 71 192 1.7 12.2 0.00 0.00 0.00 86 1004.9
20260505122504 71 148 0.9 15.6 0.00 0.00 0.00 86 1004.9
20260505122007 71 196 3.5 15.6 0.00 0.00 0.00 86 1004.9
20260505121519 71 222 0.9 7.8 0.00 0.00 0.00 86 1004.9
20260505121008 71 262 0.9 7.8 0.00 0.00 0.00 86 1004.9
20260505120513 71 191 1.7 8.7 0.00 0.00 0.00 86 1004.7
20260505120023 71 172 0.9 8.7 0.00 0.00 0.00 86 1004.8
20260505115508 71 186 0.9 7.0 0.00 0.00 0.00 86 1004.8
20260505115014 71 148 1.7 8.7 0.00 0.00 0.00 86 1004.8
20260505114528 71 160 1.7 9.6 0.00 0.00 0.00 86 1004.8
20260505114013 71 240 0.0 9.6 0.00 0.00 0.00 85 1004.5
20260505113507 71 220 0.9 9.6 0.00 0.00 0.00 85 1004.5
20260505113027 71 191 3.5 9.6 0.00 0.00 0.00 85 1004.4
20260505112512 71 204 1.7 12.2 0.00 0.00 0.00 85 1004.4
20260505112007 71 26 0.9 12.2 0.00 0.00 0.00 85 1004.5
20260505111522 71 360 1.7 9.6 0.00 0.00 0.00 85 1004.4
20260505111007 71 232 1.7 10.4 0.00 0.00 0.00 85 1004.3
20260505110507 71 231 3.5 10.4 0.00 0.00 0.00 85 1004.3
20260505102010 71 236 3.5 8.7 0.00 0.00 0.00 85 1004.7
20260505101527 71 167 1.7 9.6 0.00 0.00 0.00 85 1004.7
20260505101010 71 211 2.6 9.6 0.00 0.00 0.00 85 1004.7
20260505100504 71 209 3.5 9.6 0.00 0.00 0.00 85 1004.7
20260505100026 71 151 2.6 7.8 0.00 0.00 0.00 85 1004.6
20260505095507 71 231 1.7 8.7 0.00 0.00 0.00 85 1004.8
20260505095007 71 186 2.6 8.7 0.00 0.00 0.00 85 1004.9
20260505094503 71 238 1.7 7.8 0.00 0.00 0.00 85 1005.0
20260505094002 71 195 1.7 8.7 0.00 0.00 0.00 85 1005.0
20260505093502 71 229 3.5 8.7 0.00 0.00 0.00 85 1005.0
20260505093008 71 9 2.6 10.4 0.00 0.00 0.00 85 1005.0
20260505092502 71 202 1.7 10.4 0.00 0.00 0.00 85 1005.1
20260505092002 71 360 1.7 8.7 0.00 0.00 0.00 85 1005.1
20260505091510 71 175 1.7 8.7 0.00 0.00 0.00 85 1005.1
20260505091004 71 360 0.9 8.7 0.00 0.00 0.00 85 1005.2
20260505090508 71 171 0.9 12.2 0.00 0.00 0.00 85 1005.0
20260505090016 71 207 3.5 12.2 0.00 0.00 0.00 85 1005.1
20260505085507 71 196 2.6 12.2 0.00 0.00 0.00 85 1005.1
20260505085010 71 231 3.5 9.6 0.00 0.00 0.00 85 1005.0
20260505084522 71 360 0.0 9.6 0.00 0.00 0.00 85 1005.0
20260505084010 71 228 2.6 12.2 0.00 0.00 0.00 85 1005.0
20260505083508 71 194 2.6 12.2 0.00 0.00 0.00 85 1005.1
20260505083007 71 142 2.6 11.3 0.00 0.00 0.00 85 1005.1
20260505082504 71 173 1.7 9.6 0.00 0.00 0.00 85 1005.1
20260505082002 71 212 2.6 11.3 0.00 0.00 0.00 85 1005.1
20260505081509 71 213 2.6 11.3 0.00 0.00 0.00 85 1005.1
20260505081005 71 9 2.6 11.3 0.00 0.00 0.00 84 1005.1
20260505080506 71 190 3.5 8.7 0.00 0.00 0.00 84 1005.1
20260505080014 71 200 2.6 8.7 0.00 0.00 0.00 84 1005.2
20260505075506 71 248 0.9 12.2 0.00 0.00 0.00 84 1005.3
20260505075009 71 182 1.7 12.2 0.00 0.00 0.00 84 1005.4
20260505074518 71 153 1.7 8.7 0.00 0.00 0.00 84 1005.5
20260505074006 71 190 0.9 8.7 0.00 0.00 0.00 84 1005.6
20260505073507 71 188 1.7 7.0 0.00 0.00 0.00 84 1005.6
20260505073029 71 170 1.7 8.7 0.00 0.00 0.00 83 1005.8
20260505072508 71 203 0.9 8.7 0.00 0.00 0.00 83 1005.9
20260505072005 71 150 1.7 7.8 0.00 0.00 0.00 83 1005.9
20260505071513 72 176 2.6 8.7 0.00 0.00 0.00 83 1005.9
20260505071004 71 159 0.9 9.6 0.00 0.00 0.00 83 1006.0
20260505070503 72 181 2.6 9.6 0.00 0.00 0.00 83 1006.1
20260505070012 72 196 3.5 9.6 0.00 0.00 0.00 83 1006.2
20260505065503 72 198 1.7 7.8 0.00 0.00 0.00 83 1006.3
20260505065002 71 174 1.7 7.8 0.00 0.00 0.00 82 1006.4
20260505064521 72 182 0.9 7.0 0.00 0.00 0.00 82 1006.5
20260505064003 71 167 1.7 8.7 0.00 0.00 0.00 82 1006.4
20260505063504 71 360 1.7 8.7 0.00 0.00 0.00 82 1006.4
20260505063020 71 210 2.6 10.4 0.00 0.00 0.00 82 1006.3
20260505062509 71 191 1.7 10.4 0.00 0.00 0.00 82 1006.4
20260505062010 71 202 2.6 9.6 0.00 0.00 0.00 82 1006.5
20260505061523 71 199 1.7 9.6 0.00 0.00 0.00 81 1006.5
20260505061017 72 176 3.5 8.7 0.00 0.00 0.00 81 1006.5
20260505060510 72 176 1.7 9.6 0.00 0.00 0.00 81 1006.5
20260505060008 72 166 2.6 9.6 0.00 0.00 0.00 81 1006.6